sat.trackr.live / text

‹ back to catalog

STARLINK-32709

NORAD 62439 · 2024-251H

PAYLOAD ACTIVE UNKNOWN

§ Identity

Operator
Country
US
Launch date
2024-12-29
Launch site
AFWTR
Launch vehicle
Mass (kg)
RCS (m²)

Purposes: comms

External: N2YO · Heavens-Above · Gunter

§ Orbital elements

Epoch: 2026-09-21T20:41:11.837184Z

Period
93.85 min
Inclination
53.1571°
Eccentricity
0.0002970
Mean motion
15.34413046 rev/d
Perigee alt
460.6 km
Apogee alt
464.7 km
Semi-major
6,840.8 km
B*
5.8135e-4
RAAN
141.2308°
Arg perigee
151.8281°
Mean anomaly
208.2883°
Rev number
9,802

§ Raw data

STARLINK-327091 62439U 24251H   26264.86194256  .00019325  00000+0  58135-3 0  99932 62439  53.1571 141.2308 0002970 151.8281 208.2883 15.34413046 98022

JSON: /api/v1/satellites/62439 · /tle

For live sub-satellite position, see the globe view (requires WebGL).

§ Visibility from observer

Set your observer location to see the next 7 days of passes ≥ 10°. The values pass through the URL so the page stays shareable.

No JS? Fill the form by hand. The geolocation button needs JavaScript.